DMSP 5D-2 F13 DEB, 42323

Orbit data source: Space-Track

DMSP 5D-2 F13 DEB, 42323 is space debris in SSO originally from a launch on Fri, 24 Mar 1995 UTC launched from the Air Force Western Test Range (AFWTR). Debris objects in space refer to the collection of defunct objects orbiting the Earth. Examples of debris include non-operational satellites, rocket bodies, and fragments generated from explosions, collisions, or faulty payload assembly.

Loading next visibility...
Identifier
42323, 1995-015JR
Orbit
SSO
Last TLE update
3 days ago
Origin
Manufacturer
Unknown
Mission
Spacecraft
Bus & Motor
Unknown
Mass
Unknown
Launch date (UTC)
1995-03-24 (30 years ago)
Launch vehicle
Unknown
Launch site
Air Force Western Test Range (AFWTR)
Object type
Payload
Rocket body
Debris
Shape & HBR
Unknown
Radar Cross Section
Small (<0.1 m²)

Expand to show TLE details & history

TLE from 3 days ago
0 DMSP 5D-2 F13 DEB
1 42323U 95015JR  25186.48445675  .00000226  00000-0  13376-3 0  9992
2 42323  98.8338 199.2788 0001777 313.0651  47.0374 14.17266634503575
Epoch: 2025-07-05T11:37Z
TLE epoch observation values (Epoch: 2025-07-05T11:37:37.063Z)
Latitude
-0.00007°
Longitude
101.15255°
Altitude
836.645 km
Speed
7.435 km/s
True Right ascension
13h 17m 06s
True Declination
0° 00' 00"
Sunlit
Object was in daylight at epoch
Visualization orbit readout
Latitude
70.43446°
Longitude
-50.23752°
Altitude
847.96 km
Speed
7.435 km/s
Apparent Right ascension
06h 31m 01s
Apparent Declination
24° 00' 21"
Sunlit
Object is in daylight
Visualization observer readout
Local Sidereal Time
20:00:02
Azimuth
22.039° NNE
Elevation
-22.794°
Doppler factor
1
Orbital elements
Apogee altitude
833.061 km
Perigee altitude
830.499 km
Semi-major axis
7,209.917 km
Eccentricity
0.00018
Inclination
98.8338°
RAAN
199.2788°
Arg. of periapsis
313.0651°
True anomaly
Unknown
Mean anomaly
47.0374°
Eccentric anomaly
Unknown
Mean motion
3.54526 °/min
Orbital period
101.54 mins
BSTAR
0.00013376
Loading maneuver chart data...
Loading SW <> Apogee altitude chart data...

DMSP 5D-2 F13 DEB Visibility forecast

Observer location: undefined°, undefined°

Span
Click to sort rows by Start time (UTC) header in descending order
Start Az.
Max El. time (UTC)
Max El. Az.
Max El.
End time (UTC)
End Az.
9 mins2025-07-08 13:04:24.736Z33.935° NE2025-07-08 13:08:24.736Z86.636° E30.151°2025-07-08 13:13:24.736Z161.905° S
7 mins2025-07-08 14:46:24.736Z336.389° NNW2025-07-08 14:49:24.736Z286.879° WNW25.612°2025-07-08 14:53:24.736Z237.151° WSW
9 mins2025-07-09 00:28:24.736Z146.736° SSE2025-07-09 00:32:24.736Z70.099° E40.708°2025-07-09 00:37:24.736Z354.69° N
5 mins2025-07-09 02:11:24.736Z246.144° WSW2025-07-09 02:13:24.736Z272.338° WNW16.197°2025-07-09 02:16:24.736Z306.83° NW
|